timestamp,3576000,7076000,10138000,14076000,21076000,28076000
2021/07/31 23:41:04+0000,-44.38,-51.78,-31.18,-47.52,-52.26,-55.83
2021/07/31 23:41:56+0000,-44.47,-51.65,-30.29,-46.44,-52.79,-55.71
2021/07/31 23:42:48+0000,-44.15,-51.51,-30.46,-47.83,-52.58,-56.22
2021/07/31 23:43:40+0000,-44.13,-51.87,-30.06,-47.08,-52.92,-55.66
2021/07/31 23:44:32+0000,-43.58,-48.74,-30.61,-47.40,-52.84,-56.25
2021/07/31 23:45:24+0000,-43.53,-48.08,-30.38,-47.08,-52.17,-55.80
2021/07/31 23:46:16+0000,-44.49,-48.17,-30.55,-47.09,-53.33,-55.82
2021/07/31 23:47:08+0000,-43.78,-47.41,-30.17,-46.58,-52.83,-56.02
2021/07/31 23:48:00+0000,-43.24,-48.61,-29.58,-47.22,-52.38,-55.88
2021/07/31 23:48:52+0000,-43.35,-47.02,-30.06,-47.54,-53.16,-55.80
2021/07/31 23:49:44+0000,-42.57,-45.48,-29.88,-46.47,-53.12,-56.24
2021/07/31 23:50:36+0000,-43.75,-46.31,-30.39,-47.11,-52.32,-55.60
2021/07/31 23:51:34+0000,-43.14,-46.35,-30.59,-47.65,-53.10,-56.23
2021/07/31 23:52:26+0000,-42.90,-46.24,-30.18,-46.95,-52.90,-55.50
2021/07/31 23:53:18+0000,-42.66,-46.36,-30.32,-46.34,-53.07,-55.67
2021/07/31 23:54:10+0000,-44.46,-46.91,-29.90,-47.14,-52.65,-55.61
2021/07/31 23:55:02+0000,-43.81,-47.46,-29.98,-46.65,-52.59,-55.93
2021/07/31 23:55:54+0000,-44.52,-46.03,-30.66,-47.58,-52.76,-55.86
2021/07/31 23:56:46+0000,-43.90,-48.33,-30.38,-47.14,-52.95,-56.40
2021/07/31 23:57:38+0000,-44.01,-46.19,-29.98,-47.02,-52.89,-55.83
2021/07/31 23:58:30+0000,-44.17,-46.82,-30.45,-47.84,-51.99,-56.10
2021/07/31 23:59:22+0000,-43.86,-46.29,-30.35,-46.95,-52.41,-55.77
2021/08/01 00:00:14+0000,-43.79,-46.37,-30.36,-46.70,-52.51,-56.40
2021/08/01 00:01:17+0000,-42.64,-46.51,-30.46,-47.28,-52.77,-55.78
2021/08/01 00:02:09+0000,-43.22,-47.50,-30.71,-47.60,-52.68,-55.93
2021/08/01 00:03:01+0000,-44.09,-47.86,-30.57,-47.18,-52.23,-56.18
2021/08/01 00:03:53+0000,-43.10,-46.86,-30.52,-46.74,-53.01,-55.76
2021/08/01 00:04:45+0000,-43.16,-46.33,-30.14,-46.79,-53.15,-55.91
2021/08/01 00:05:37+0000,-43.37,-45.91,-30.19,-46.63,-52.94,-55.96
2021/08/01 00:06:29+0000,-42.90,-46.92,-30.75,-47.54,-52.36,-54.48
2021/08/01 00:07:21+0000,-43.51,-46.81,-29.92,-47.55,-53.05,-55.86
2021/08/01 00:08:13+0000,-42.98,-47.02,-30.50,-46.70,-52.76,-56.01
2021/08/01 00:09:05+0000,-43.40,-45.97,-30.23,-46.89,-52.13,-55.46
2021/08/01 00:09:57+0000,-43.82,-47.09,-30.34,-46.80,-52.80,-56.24
2021/08/01 00:10:49+0000,-43.69,-46.74,-30.32,-46.83,-53.04,-55.78
2021/08/01 00:11:50+0000,-43.02,-47.07,-30.96,-47.06,-52.76,-56.08
2021/08/01 00:12:42+0000,-43.23,-46.43,-31.29,-46.99,-52.56,-55.83
2021/08/01 00:13:34+0000,-43.59,-47.78,-31.11,-47.07,-52.31,-55.91
2021/08/01 00:14:26+0000,-43.83,-46.72,-31.20,-46.41,-52.36,-55.85
2021/08/01 00:15:18+0000,-43.77,-46.79,-30.59,-47.99,-52.66,-55.57
2021/08/01 00:16:10+0000,-43.84,-47.04,-31.01,-46.46,-52.94,-55.68
2021/08/01 00:17:02+0000,-42.77,-45.52,-31.42,-46.38,-53.16,-55.70
2021/08/01 00:17:54+0000,-42.49,-47.08,-30.91,-46.65,-52.65,-55.59
2021/08/01 00:18:46+0000,-42.99,-47.36,-30.94,-46.34,-53.19,-56.18
2021/08/01 00:19:38+0000,-42.98,-46.87,-31.31,-46.25,-52.74,-55.80
2021/08/01 00:20:30+0000,-41.81,-46.65,-30.65,-47.27,-51.89,-55.41
2021/08/01 00:21:30+0000,-42.07,-46.95,-30.81,-46.91,-51.25,-55.47
2021/08/01 00:22:22+0000,-42.30,-47.17,-30.76,-46.61,-52.44,-56.08
2021/08/01 00:23:14+0000,-42.95,-46.63,-30.43,-46.62,-52.49,-55.68
2021/08/01 00:24:06+0000,-41.94,-47.58,-30.84,-46.66,-51.11,-55.78
2021/08/01 00:24:58+0000,-43.02,-46.83,-30.66,-46.67,-51.33,-55.36
2021/08/01 00:25:50+0000,-43.43,-46.86,-30.63,-46.20,-52.62,-55.56
2021/08/01 00:26:42+0000,-42.80,-47.58,-31.01,-45.80,-52.49,-55.40
2021/08/01 00:27:35+0000,-42.01,-47.86,-31.22,-47.39,-52.21,-55.75
2021/08/01 00:28:27+0000,-41.43,-47.14,-30.79,-46.78,-52.63,-55.43
2021/08/01 00:29:19+0000,-42.50,-46.58,-31.16,-46.11,-52.13,-56.00
2021/08/01 00:30:11+0000,-42.12,-47.51,-30.87,-45.81,-52.25,-55.96
2021/08/01 00:31:12+0000,-42.79,-47.16,-31.35,-45.98,-52.61,-55.48
2021/08/01 00:32:04+0000,-41.77,-47.12,-30.52,-46.80,-52.59,-55.97
2021/08/01 00:32:56+0000,-41.32,-47.45,-30.65,-46.63,-52.54,-56.33
2021/08/01 00:33:48+0000,-42.50,-47.08,-30.20,-47.27,-52.84,-56.55
2021/08/01 00:34:40+0000,-41.70,-47.10,-30.36,-46.64,-53.36,-55.49
2021/08/01 00:35:32+0000,-42.25,-47.17,-30.33,-46.70,-52.39,-55.37
2021/08/01 00:36:24+0000,-41.43,-47.12,-30.93,-46.23,-52.92,-55.85
2021/08/01 00:37:16+0000,-41.18,-47.05,-30.55,-47.19,-52.77,-55.35
2021/08/01 00:38:08+0000,-41.04,-46.83,-32.12,-46.81,-52.63,-55.68
2021/08/01 00:39:00+0000,-42.33,-47.20,-31.77,-47.30,-52.47,-55.60
2021/08/01 00:39:52+0000,-42.83,-46.83,-31.16,-47.20,-52.85,-55.17
2021/08/01 00:40:44+0000,-42.04,-49.38,-30.87,-47.43,-52.80,-55.40
2021/08/01 00:41:46+0000,-41.54,-49.31,-31.39,-47.43,-52.10,-55.10
2021/08/01 00:42:38+0000,-40.78,-49.97,-30.65,-46.77,-52.15,-55.56
2021/08/01 00:43:30+0000,-42.24,-50.70,-31.35,-46.50,-52.67,-55.50
2021/08/01 00:44:22+0000,-41.37,-49.48,-31.20,-47.22,-53.02,-56.01
2021/08/01 00:45:14+0000,-41.81,-49.50,-31.10,-47.10,-52.63,-55.66
2021/08/01 00:46:06+0000,-41.89,-50.34,-30.87,-46.17,-53.02,-55.13
2021/08/01 00:46:58+0000,-42.02,-50.04,-31.60,-47.73,-52.56,-54.95
2021/08/01 00:47:50+0000,-41.82,-50.13,-30.94,-47.03,-52.21,-55.06
2021/08/01 00:48:42+0000,-41.71,-49.95,-31.30,-47.37,-52.79,-55.13
2021/08/01 00:49:34+0000,-41.31,-49.89,-31.42,-47.08,-52.26,-55.36
2021/08/01 00:50:26+0000,-42.20,-50.26,-31.67,-47.06,-52.88,-55.09
2021/08/01 00:51:26+0000,-42.48,-50.20,-31.07,-47.19,-52.58,-55.73
2021/08/01 00:52:18+0000,-42.39,-50.12,-31.42,-45.99,-52.43,-55.54
2021/08/01 00:53:11+0000,-41.36,-50.29,-31.09,-46.65,-52.90,-55.78
2021/08/01 00:54:03+0000,-42.46,-50.50,-31.29,-46.35,-52.51,-55.52
2021/08/01 00:54:55+0000,-42.13,-50.19,-31.21,-46.57,-52.41,-55.22
2021/08/01 00:55:47+0000,-42.21,-50.27,-31.45,-46.38,-52.38,-55.44
2021/08/01 00:56:39+0000,-43.14,-51.20,-30.91,-47.21,-52.21,-55.35
2021/08/01 00:57:31+0000,-42.17,-49.78,-30.68,-46.41,-52.25,-55.35
2021/08/01 00:58:23+0000,-40.68,-50.33,-30.88,-46.92,-52.22,-55.59
2021/08/01 00:59:15+0000,-40.81,-49.99,-31.51,-46.81,-52.18,-56.39
2021/08/01 01:00:07+0000,-41.88,-50.65,-30.90,-47.45,-52.75,-56.22
2021/08/01 01:01:08+0000,-41.87,-50.08,-31.73,-47.34,-53.03,-55.71
2021/08/01 01:02:00+0000,-42.33,-50.52,-30.61,-47.33,-52.33,-56.22
2021/08/01 01:02:52+0000,-41.87,-51.20,-30.98,-47.13,-52.30,-55.54
2021/08/01 01:03:44+0000,-41.82,-49.89,-31.03,-47.61,-52.74,-55.63
2021/08/01 01:04:36+0000,-42.43,-50.41,-31.11,-46.42,-53.03,-56.26
2021/08/01 01:05:28+0000,-41.53,-49.23,-31.46,-46.16,-52.81,-56.06
2021/08/01 01:06:20+0000,-41.87,-49.51,-31.00,-47.51,-52.55,-56.27
2021/08/01 01:07:12+0000,-41.91,-49.62,-31.83,-47.58,-52.65,-55.99
2021/08/01 01:08:04+0000,-41.26,-50.16,-30.92,-47.26,-52.68,-56.31
2021/08/01 01:08:56+0000,-41.02,-49.36,-31.60,-46.79,-52.56,-56.26
2021/08/01 01:09:48+0000,-42.58,-50.14,-31.05,-48.13,-52.41,-56.26
2021/08/01 01:10:40+0000,-41.62,-49.43,-30.87,-47.96,-52.97,-56.30
2021/08/01 01:11:40+0000,-39.87,-50.03,-30.84,-47.56,-52.41,-55.59
2021/08/01 01:12:32+0000,-41.97,-48.87,-31.31,-47.96,-52.72,-55.97
2021/08/01 01:13:24+0000,-42.61,-49.02,-31.04,-46.74,-52.44,-55.97
2021/08/01 01:14:16+0000,-40.17,-49.32,-30.54,-47.25,-52.97,-56.47
2021/08/01 01:15:08+0000,-41.35,-49.88,-30.59,-47.39,-52.39,-55.92
2021/08/01 01:16:00+0000,-42.15,-49.27,-30.63,-46.89,-52.60,-56.27
2021/08/01 01:16:52+0000,-41.46,-49.72,-31.38,-46.72,-51.87,-56.32
2021/08/01 01:17:44+0000,-41.90,-49.12,-31.46,-47.85,-52.84,-56.64
2021/08/01 01:18:36+0000,-42.55,-49.81,-31.42,-46.15,-52.81,-56.80
2021/08/01 01:19:28+0000,-41.97,-49.05,-31.37,-47.62,-52.97,-56.64
2021/08/01 01:20:20+0000,-41.90,-49.56,-31.13,-46.76,-52.85,-56.44
2021/08/01 01:21:20+0000,-41.47,-49.86,-31.07,-47.76,-52.35,-55.69
2021/08/01 01:22:12+0000,-42.28,-49.25,-31.54,-47.00,-53.00,-56.43
2021/08/01 01:23:04+0000,-42.56,-50.29,-30.92,-47.63,-53.23,-55.55
2021/08/01 01:23:56+0000,-43.01,-49.28,-30.68,-46.92,-52.88,-55.96
2021/08/01 01:24:48+0000,-41.43,-48.73,-30.37,-47.81,-52.60,-56.17
2021/08/01 01:25:40+0000,-42.15,-49.14,-30.73,-47.43,-53.29,-55.65
2021/08/01 01:26:32+0000,-42.91,-48.54,-31.00,-46.98,-52.51,-55.94
2021/08/01 01:27:25+0000,-42.77,-48.38,-31.64,-47.26,-52.19,-56.05
2021/08/01 01:28:17+0000,-41.10,-49.14,-31.65,-46.76,-52.68,-56.26
2021/08/01 01:29:09+0000,-41.12,-48.60,-30.76,-47.65,-52.36,-56.54
2021/08/01 01:30:01+0000,-41.03,-48.79,-31.05,-47.46,-52.31,-56.04
2021/08/01 01:31:02+0000,-41.35,-48.82,-31.19,-47.96,-52.41,-55.48
2021/08/01 01:31:54+0000,-40.76,-48.97,-31.00,-47.28,-52.57,-55.55
2021/08/01 01:32:46+0000,-42.50,-50.59,-30.82,-47.83,-53.36,-56.02
2021/08/01 01:33:38+0000,-42.63,-50.18,-31.27,-46.29,-52.62,-55.84
2021/08/01 01:34:30+0000,-41.17,-49.13,-31.20,-47.48,-52.37,-56.22
2021/08/01 01:35:22+0000,-42.20,-49.17,-31.33,-47.60,-52.13,-56.18
2021/08/01 01:36:14+0000,-40.68,-48.60,-30.72,-47.60,-52.88,-56.04
2021/08/01 01:37:06+0000,-41.99,-49.04,-30.87,-47.48,-52.91,-56.06
2021/08/01 01:37:58+0000,-39.76,-48.44,-31.36,-47.34,-52.71,-55.93
2021/08/01 01:38:50+0000,-40.11,-48.92,-31.50,-48.12,-52.48,-55.71
2021/08/01 01:39:42+0000,-40.02,-48.47,-31.16,-47.33,-53.27,-55.48
2021/08/01 01:40:35+0000,-40.54,-49.13,-30.65,-47.88,-53.57,-55.80
2021/08/01 01:41:34+0000,-41.07,-48.15,-30.75,-48.29,-52.09,-56.17
2021/08/01 01:42:26+0000,-39.93,-48.59,-31.11,-47.27,-52.92,-55.41
2021/08/01 01:43:18+0000,-40.77,-48.46,-30.76,-47.17,-52.45,-55.39
2021/08/01 01:44:10+0000,-40.25,-48.33,-30.80,-46.85,-52.39,-55.50
2021/08/01 01:45:02+0000,-40.29,-48.07,-31.44,-46.96,-53.01,-55.88
2021/08/01 01:45:54+0000,-40.42,-48.46,-30.29,-46.04,-52.76,-56.43
2021/08/01 01:46:46+0000,-40.85,-48.61,-30.87,-47.21,-53.54,-56.33
2021/08/01 01:47:38+0000,-39.28,-48.54,-31.32,-46.54,-52.72,-56.14
2021/08/01 01:48:30+0000,-39.95,-47.55,-31.09,-46.15,-52.70,-57.02
2021/08/01 01:49:22+0000,-40.78,-48.94,-31.13,-46.79,-52.46,-56.04
2021/08/01 01:50:14+0000,-40.16,-48.07,-31.12,-47.83,-52.70,-56.06
2021/08/01 01:51:14+0000,-40.26,-49.00,-30.89,-47.09,-52.84,-56.03
2021/08/01 01:52:06+0000,-41.01,-50.28,-31.06,-46.86,-52.26,-56.05
2021/08/01 01:52:59+0000,-40.12,-48.13,-31.03,-47.60,-52.63,-55.77
2021/08/01 01:53:51+0000,-40.65,-46.29,-30.96,-47.71,-53.75,-56.17
2021/08/01 01:54:43+0000,-41.64,-46.65,-31.25,-47.20,-52.74,-55.68
2021/08/01 01:55:35+0000,-40.94,-46.99,-31.34,-48.04,-52.35,-55.81
2021/08/01 01:56:27+0000,-40.09,-46.36,-31.37,-47.69,-52.97,-55.45
2021/08/01 01:57:19+0000,-42.02,-46.43,-31.53,-48.27,-53.17,-56.24
2021/08/01 01:58:11+0000,-40.03,-47.25,-31.27,-47.48,-52.36,-55.60
2021/08/01 01:59:03+0000,-40.05,-46.63,-31.75,-47.01,-52.85,-56.25
2021/08/01 01:59:55+0000,-40.91,-47.01,-31.10,-47.59,-52.44,-56.34
2021/08/01 02:00:47+0000,-40.54,-46.39,-30.50,-47.15,-52.77,-55.71
2021/08/01 02:01:47+0000,-40.79,-47.31,-31.30,-48.27,-52.88,-56.22
2021/08/01 02:02:39+0000,-40.79,-46.91,-30.94,-47.65,-52.21,-55.63
2021/08/01 02:03:31+0000,-40.04,-46.09,-30.76,-47.47,-52.65,-56.23
2021/08/01 02:04:23+0000,-39.52,-46.27,-30.69,-47.68,-53.24,-56.42
2021/08/01 02:05:15+0000,-39.22,-47.04,-31.05,-47.98,-53.00,-55.22
2021/08/01 02:06:07+0000,-40.73,-46.90,-31.54,-48.05,-52.70,-56.17
2021/08/01 02:06:59+0000,-38.44,-47.18,-31.09,-47.50,-52.24,-56.06
2021/08/01 02:07:51+0000,-39.08,-47.61,-30.72,-46.93,-52.65,-55.90
2021/08/01 02:08:43+0000,-38.45,-48.53,-31.36,-47.19,-52.71,-56.28
2021/08/01 02:09:36+0000,-38.78,-47.72,-31.33,-47.88,-52.81,-56.04
2021/08/01 02:10:28+0000,-38.01,-47.28,-31.23,-47.93,-52.37,-56.14
2021/08/01 02:11:27+0000,-38.30,-45.70,-31.46,-47.24,-52.50,-55.74
2021/08/01 02:12:20+0000,-37.46,-46.31,-30.90,-48.22,-53.57,-55.99
2021/08/01 02:13:12+0000,-37.40,-46.05,-31.60,-48.27,-52.81,-56.61
2021/08/01 02:14:04+0000,-37.33,-46.37,-31.03,-48.09,-52.97,-56.07
2021/08/01 02:14:56+0000,-36.83,-46.56,-31.21,-46.68,-53.21,-55.72
2021/08/01 02:15:48+0000,-37.38,-46.43,-31.83,-47.94,-53.23,-56.06
2021/08/01 02:16:40+0000,-37.09,-46.39,-31.28,-48.04,-52.81,-55.71
2021/08/01 02:17:32+0000,-37.35,-46.92,-31.42,-47.11,-52.07,-56.41
2021/08/01 02:18:24+0000,-37.19,-46.60,-31.19,-46.71,-52.24,-56.44
2021/08/01 02:19:16+0000,-37.13,-46.85,-31.09,-47.53,-52.88,-56.31
2021/08/01 02:20:08+0000,-36.62,-46.11,-31.45,-48.17,-52.63,-55.87
2021/08/01 02:21:14+0000,-36.91,-46.42,-31.52,-47.94,-52.79,-55.28
2021/08/01 02:22:06+0000,-37.50,-48.80,-31.26,-47.82,-52.59,-56.53
2021/08/01 02:22:58+0000,-39.24,-46.14,-31.22,-47.39,-52.33,-56.19
2021/08/01 02:23:50+0000,-38.84,-46.98,-31.40,-48.50,-52.63,-55.74
2021/08/01 02:24:42+0000,-39.28,-46.08,-30.97,-47.05,-52.29,-56.18
2021/08/01 02:25:34+0000,-38.54,-46.67,-30.82,-48.55,-53.19,-56.10
2021/08/01 02:26:26+0000,-38.54,-47.05,-31.35,-46.61,-53.07,-56.20
2021/08/01 02:27:18+0000,-38.29,-46.13,-31.25,-48.06,-52.89,-56.40
2021/08/01 02:28:10+0000,-37.62,-48.53,-31.98,-47.35,-52.90,-55.96
2021/08/01 02:29:02+0000,-37.79,-48.44,-31.10,-46.22,-52.77,-56.13
2021/08/01 02:29:54+0000,-38.51,-49.26,-31.61,-46.64,-52.15,-55.67
2021/08/01 02:30:46+0000,-37.89,-49.25,-31.62,-47.57,-52.31,-56.17
2021/08/01 02:31:49+0000,-37.79,-49.52,-31.35,-48.84,-51.80,-56.01
2021/08/01 02:32:41+0000,-37.83,-48.66,-31.24,-48.63,-52.46,-55.89
2021/08/01 02:33:33+0000,-37.67,-47.95,-30.83,-46.81,-52.19,-56.33
2021/08/01 02:34:25+0000,-38.03,-49.57,-30.72,-46.83,-52.44,-56.41
2021/08/01 02:35:17+0000,-38.11,-47.62,-30.30,-48.50,-52.69,-56.13
2021/08/01 02:36:09+0000,-37.60,-48.38,-31.44,-47.25,-52.88,-55.71
2021/08/01 02:37:01+0000,-38.36,-47.45,-30.91,-46.87,-52.90,-55.97
2021/08/01 02:37:53+0000,-39.30,-48.06,-30.42,-47.33,-53.18,-56.38
2021/08/01 02:38:45+0000,-37.74,-47.88,-31.02,-44.18,-52.63,-55.77
2021/08/01 02:39:37+0000,-38.08,-50.83,-30.63,-44.43,-53.39,-55.60
2021/08/01 02:40:29+0000,-38.04,-50.05,-30.94,-45.70,-53.14,-56.82
2021/08/01 02:41:30+0000,-38.34,-48.19,-30.91,-45.14,-52.42,-55.57
2021/08/01 02:42:22+0000,-39.17,-50.47,-30.77,-44.17,-52.64,-56.21
2021/08/01 02:43:14+0000,-37.88,-47.37,-30.84,-44.66,-52.46,-55.29
2021/08/01 02:44:06+0000,-37.85,-48.51,-30.65,-44.33,-52.32,-55.52
2021/08/01 02:44:58+0000,-38.58,-49.04,-31.13,-45.86,-52.44,-55.44
2021/08/01 02:45:50+0000,-38.41,-49.68,-31.21,-48.11,-52.26,-55.31
2021/08/01 02:46:42+0000,-38.52,-49.07,-30.67,-44.58,-52.13,-55.36
2021/08/01 02:47:34+0000,-37.11,-47.58,-30.97,-47.99,-52.84,-55.02
2021/08/01 02:48:26+0000,-38.56,-47.70,-31.12,-46.46,-51.71,-54.71
2021/08/01 02:49:18+0000,-38.24,-47.64,-31.03,-43.94,-52.05,-55.59
2021/08/01 02:50:10+0000,-38.11,-49.17,-30.93,-44.41,-52.23,-55.30
2021/08/01 02:51:10+0000,-38.44,-48.57,-30.41,-44.82,-52.61,-55.16
2021/08/01 02:52:02+0000,-39.39,-47.21,-30.26,-46.14,-52.73,-55.53
2021/08/01 02:52:54+0000,-38.60,-48.29,-30.69,-47.75,-52.82,-55.17
2021/08/01 02:53:46+0000,-38.92,-48.21,-30.22,-43.91,-53.16,-55.64
2021/08/01 02:54:38+0000,-37.67,-50.72,-30.17,-44.58,-52.71,-55.72
2021/08/01 02:55:30+0000,-38.49,-47.33,-30.25,-46.36,-51.62,-55.51
2021/08/01 02:56:22+0000,-37.82,-50.34,-30.62,-46.60,-52.74,-56.05
2021/08/01 02:57:14+0000,-37.48,-48.04,-30.12,-44.73,-52.66,-56.06
2021/08/01 02:58:06+0000,-38.95,-48.64,-30.83,-47.85,-52.24,-56.18
2021/08/01 02:58:58+0000,-39.25,-49.20,-31.19,-46.52,-52.68,-55.33
2021/08/01 02:59:51+0000,-38.43,-49.21,-30.01,-47.81,-52.61,-55.51
2021/08/01 03:00:43+0000,-38.24,-46.58,-30.47,-44.54,-52.84,-55.34
2021/08/01 03:01:43+0000,-38.52,-48.81,-30.60,-45.43,-52.17,-55.92
2021/08/01 03:02:35+0000,-38.14,-50.38,-30.43,-47.91,-52.40,-55.41
2021/08/01 03:03:27+0000,-38.25,-48.72,-30.48,-45.15,-52.65,-56.28
2021/08/01 03:04:19+0000,-38.50,-50.57,-30.22,-47.57,-52.25,-55.87
2021/08/01 03:05:11+0000,-38.62,-48.37,-30.48,-47.43,-52.49,-55.81
2021/08/01 03:06:03+0000,-38.69,-49.34,-30.39,-49.04,-52.59,-55.39
2021/08/01 03:06:55+0000,-38.69,-49.51,-30.61,-43.81,-52.47,-55.98
2021/08/01 03:07:47+0000,-38.83,-47.74,-30.49,-47.97,-51.60,-56.12
2021/08/01 03:08:40+0000,-38.63,-49.61,-30.69,-46.97,-52.42,-55.96
2021/08/01 03:09:32+0000,-37.70,-47.69,-30.51,-45.54,-52.55,-55.49
2021/08/01 03:10:24+0000,-38.49,-48.51,-29.95,-46.41,-52.39,-56.02
2021/08/01 03:11:23+0000,-38.74,-49.40,-29.77,-44.42,-52.48,-56.00
2021/08/01 03:12:15+0000,-38.49,-48.32,-30.67,-44.67,-52.74,-55.47
2021/08/01 03:13:07+0000,-37.40,-51.54,-30.50,-44.67,-52.24,-55.74
2021/08/01 03:13:59+0000,-38.58,-48.44,-31.00,-45.30,-52.64,-55.79
2021/08/01 03:14:51+0000,-37.54,-50.93,-31.24,-46.60,-52.55,-55.03
2021/08/01 03:15:43+0000,-38.23,-46.81,-30.92,-44.86,-52.72,-55.44
2021/08/01 03:16:35+0000,-38.47,-49.33,-30.51,-49.62,-52.66,-56.49
2021/08/01 03:17:27+0000,-38.57,-49.14,-30.16,-42.44,-52.56,-55.79
2021/08/01 03:18:19+0000,-38.57,-46.63,-30.07,-48.77,-52.70,-55.67
2021/08/01 03:19:11+0000,-38.00,-46.44,-30.38,-43.76,-52.73,-55.49
2021/08/01 03:20:03+0000,-38.99,-49.10,-31.24,-48.23,-52.50,-55.60
2021/08/01 03:21:03+0000,-39.67,-48.66,-30.98,-47.26,-52.87,-55.86
2021/08/01 03:21:55+0000,-38.27,-49.69,-30.91,-47.30,-52.85,-55.65
2021/08/01 03:22:47+0000,-38.08,-47.62,-30.43,-46.93,-52.88,-55.93
2021/08/01 03:23:39+0000,-38.25,-48.42,-30.53,-46.80,-52.98,-55.08
2021/08/01 03:24:31+0000,-38.78,-49.35,-30.34,-42.33,-52.80,-55.27
2021/08/01 03:25:23+0000,-37.88,-50.17,-31.18,-42.33,-52.61,-55.99
2021/08/01 03:26:15+0000,-38.89,-48.67,-30.20,-45.44,-52.21,-55.57
2021/08/01 03:27:07+0000,-37.96,-50.01,-30.62,-44.29,-52.97,-55.70
2021/08/01 03:27:59+0000,-38.08,-47.82,-30.31,-45.27,-52.60,-56.21
2021/08/01 03:28:51+0000,-37.16,-46.90,-30.05,-44.19,-52.30,-55.66
2021/08/01 03:29:43+0000,-38.13,-46.53,-30.33,-45.59,-51.71,-56.25
2021/08/01 03:30:35+0000,-35.37,-44.32,-30.36,-48.51,-53.06,-56.09
2021/08/01 03:31:37+0000,-37.73,-46.67,-30.35,-46.49,-52.88,-55.80
2021/08/01 03:32:29+0000,-38.03,-46.81,-29.65,-42.85,-52.91,-56.05
2021/08/01 03:33:21+0000,-37.97,-47.26,-30.01,-45.50,-53.12,-55.16
2021/08/01 03:34:13+0000,-37.85,-45.44,-30.88,-48.44,-52.67,-56.25
2021/08/01 03:35:05+0000,-36.51,-46.61,-30.99,-48.30,-53.21,-55.48
2021/08/01 03:35:57+0000,-38.45,-45.64,-30.19,-43.67,-53.08,-56.11
2021/08/01 03:36:49+0000,-37.82,-46.71,-30.60,-47.99,-52.65,-55.68
2021/08/01 03:37:41+0000,-38.59,-46.66,-31.16,-45.51,-52.58,-55.43
2021/08/01 03:38:33+0000,-37.80,-46.28,-30.94,-43.55,-51.84,-55.99
2021/08/01 03:39:25+0000,-37.21,-44.78,-30.61,-41.90,-52.63,-55.60
2021/08/01 03:40:17+0000,-37.44,-46.11,-30.59,-45.31,-53.05,-56.23
2021/08/01 03:41:18+0000,-36.98,-46.25,-30.59,-46.14,-52.73,-55.87
2021/08/01 03:42:10+0000,-37.59,-46.22,-30.25,-45.93,-52.81,-56.04
2021/08/01 03:43:02+0000,-39.28,-45.46,-31.13,-42.63,-53.01,-55.88
2021/08/01 03:43:54+0000,-39.53,-46.06,-30.67,-45.20,-52.82,-56.32
2021/08/01 03:44:46+0000,-38.45,-46.03,-31.16,-45.79,-52.51,-55.81
2021/08/01 03:45:38+0000,-39.89,-45.93,-30.20,-47.22,-53.22,-56.39
2021/08/01 03:46:30+0000,-39.97,-45.91,-30.55,-43.14,-52.83,-56.30
2021/08/01 03:47:22+0000,-38.72,-46.60,-30.59,-44.26,-52.68,-55.88
2021/08/01 03:48:14+0000,-37.47,-46.15,-30.39,-46.70,-52.89,-56.40
2021/08/01 03:49:06+0000,-39.18,-46.09,-30.37,-49.36,-52.77,-56.02
2021/08/01 03:49:58+0000,-40.08,-45.36,-30.48,-45.97,-52.59,-55.99
2021/08/01 03:50:50+0000,-39.46,-45.83,-30.08,-48.90,-52.31,-56.27
2021/08/01 03:51:51+0000,-37.91,-45.61,-29.75,-48.72,-52.64,-56.03
2021/08/01 03:52:43+0000,-40.44,-45.63,-30.30,-46.43,-51.88,-55.91
2021/08/01 03:53:35+0000,-38.44,-45.82,-30.45,-48.26,-52.63,-56.16
2021/08/01 03:54:27+0000,-40.73,-45.43,-30.72,-44.02,-52.72,-55.64
2021/08/01 03:55:19+0000,-40.71,-46.23,-30.84,-46.59,-52.23,-55.95
2021/08/01 03:56:11+0000,-40.23,-45.27,-29.93,-46.95,-52.60,-56.00
2021/08/01 03:57:03+0000,-40.98,-46.98,-29.57,-42.72,-53.14,-56.43
2021/08/01 03:57:55+0000,-39.81,-46.36,-29.99,-45.00,-53.15,-56.88
2021/08/01 03:58:47+0000,-40.67,-45.41,-30.86,-45.75,-52.60,-55.77
2021/08/01 03:59:39+0000,-40.35,-46.83,-29.50,-45.01,-52.19,-55.54
2021/08/01 04:00:31+0000,-40.86,-44.78,-29.90,-44.09,-53.30,-56.18
2021/08/01 04:01:31+0000,-39.78,-46.23,-29.40,-43.33,-53.42,-55.75
2021/08/01 04:02:23+0000,-39.88,-45.38,-30.31,-45.71,-52.41,-55.65
2021/08/01 04:03:15+0000,-40.14,-45.96,-30.95,-46.75,-53.19,-55.46
2021/08/01 04:04:07+0000,-40.17,-43.40,-30.38,-47.24,-53.23,-55.76
2021/08/01 04:04:59+0000,-41.12,-47.19,-30.19,-45.28,-53.43,-55.87
2021/08/01 04:05:51+0000,-36.82,-47.46,-30.41,-45.53,-52.61,-55.81
2021/08/01 04:06:44+0000,-39.75,-44.04,-29.94,-46.13,-52.58,-55.96
2021/08/01 04:07:36+0000,-40.27,-47.64,-30.50,-46.72,-52.51,-55.88
2021/08/01 04:08:28+0000,-40.55,-47.07,-30.60,-45.20,-53.19,-55.83
2021/08/01 04:09:20+0000,-39.05,-46.23,-30.07,-42.72,-52.85,-56.14
2021/08/01 04:10:12+0000,-41.46,-43.38,-30.29,-48.40,-52.49,-55.27
2021/08/01 04:11:15+0000,-41.98,-41.84,-30.22,-47.13,-52.68,-55.91
2021/08/01 04:12:07+0000,-39.96,-45.71,-30.32,-48.14,-52.92,-55.80
2021/08/01 04:12:59+0000,-39.68,-45.44,-30.17,-41.52,-52.33,-56.46
2021/08/01 04:13:51+0000,-41.42,-48.02,-30.12,-40.99,-53.02,-55.86
2021/08/01 04:14:43+0000,-41.00,-43.37,-30.12,-47.52,-52.56,-55.86
2021/08/01 04:15:35+0000,-41.21,-48.29,-30.26,-47.32,-53.37,-55.54
2021/08/01 04:16:27+0000,-40.12,-44.30,-30.77,-41.25,-52.99,-55.78
2021/08/01 04:17:19+0000,-39.58,-44.27,-30.42,-48.06,-52.81,-55.77
2021/08/01 04:18:11+0000,-41.20,-46.91,-30.38,-47.81,-52.63,-55.82
2021/08/01 04:19:03+0000,-41.28,-44.70,-29.83,-48.52,-52.96,-55.63
2021/08/01 04:19:56+0000,-40.31,-46.30,-29.55,-46.55,-52.86,-56.13
2021/08/01 04:20:48+0000,-41.33,-45.45,-30.35,-47.90,-52.78,-56.00
2021/08/01 04:21:48+0000,-40.77,-44.68,-30.27,-47.49,-53.14,-55.50
2021/08/01 04:22:40+0000,-40.70,-46.21,-31.02,-47.63,-52.95,-55.54
2021/08/01 04:23:32+0000,-40.73,-46.18,-30.98,-48.10,-53.07,-56.01
2021/08/01 04:24:24+0000,-40.49,-43.97,-30.29,-47.09,-53.24,-56.11
2021/08/01 04:25:16+0000,-42.05,-45.63,-30.98,-47.83,-52.91,-55.74
2021/08/01 04:26:08+0000,-41.65,-46.16,-30.51,-47.08,-52.55,-55.95
2021/08/01 04:27:00+0000,-37.91,-45.96,-30.61,-46.47,-52.86,-55.54
2021/08/01 04:27:52+0000,-41.50,-47.43,-30.07,-46.96,-52.74,-55.50
2021/08/01 04:28:44+0000,-40.25,-45.46,-30.88,-46.54,-52.25,-55.09
2021/08/01 04:29:36+0000,-41.69,-47.48,-29.86,-46.66,-52.69,-55.48
2021/08/01 04:30:28+0000,-42.68,-43.47,-30.55,-43.13,-53.16,-55.62
2021/08/01 04:31:28+0000,-40.77,-44.86,-30.35,-40.88,-52.67,-55.39
2021/08/01 04:32:20+0000,-41.44,-47.96,-30.44,-48.82,-52.51,-55.80
2021/08/01 04:33:12+0000,-41.02,-47.42,-31.13,-47.64,-52.53,-55.84
2021/08/01 04:34:05+0000,-40.71,-49.23,-30.94,-49.39,-52.60,-55.96
2021/08/01 04:34:57+0000,-42.97,-47.18,-30.78,-46.16,-53.07,-55.29
2021/08/01 04:35:49+0000,-40.76,-43.19,-30.44,-48.60,-52.91,-55.87
2021/08/01 04:36:41+0000,-41.90,-42.95,-30.91,-46.89,-52.53,-55.49
2021/08/01 04:37:33+0000,-40.25,-47.57,-30.36,-46.11,-52.42,-55.84
2021/08/01 04:38:25+0000,-41.52,-47.72,-31.06,-45.41,-52.89,-55.47
2021/08/01 04:39:17+0000,-40.52,-42.09,-30.66,-46.72,-52.05,-54.95
2021/08/01 04:40:09+0000,-42.38,-44.01,-30.43,-48.43,-51.82,-55.15
2021/08/01 04:41:10+0000,-39.38,-41.69,-30.58,-47.68,-52.50,-55.75
2021/08/01 04:42:02+0000,-41.22,-46.55,-31.10,-43.64,-52.88,-55.22
2021/08/01 04:42:54+0000,-38.68,-46.79,-30.85,-46.18,-52.38,-55.43
2021/08/01 04:43:46+0000,-41.16,-43.44,-31.06,-48.06,-52.42,-55.56
2021/08/01 04:44:38+0000,-41.82,-47.29,-31.38,-48.42,-52.97,-55.17
2021/08/01 04:45:30+0000,-41.11,-46.62,-30.94,-46.16,-52.57,-55.04
2021/08/01 04:46:22+0000,-41.12,-47.27,-30.00,-45.21,-52.27,-55.07
2021/08/01 04:47:14+0000,-37.61,-44.85,-29.93,-48.42,-52.66,-54.70
2021/08/01 04:48:06+0000,-37.94,-47.77,-31.60,-48.05,-52.84,-54.68
2021/08/01 04:48:58+0000,-42.89,-44.14,-30.42,-44.28,-53.21,-55.00
2021/08/01 04:49:50+0000,-42.42,-45.03,-30.15,-49.64,-52.56,-54.51
2021/08/01 04:50:42+0000,-38.91,-44.91,-30.11,-49.25,-52.23,-55.34
2021/08/01 04:51:42+0000,-41.30,-42.70,-29.84,-49.28,-52.93,-55.62
2021/08/01 04:52:34+0000,-40.76,-43.78,-29.64,-44.24,-52.72,-55.33
2021/08/01 04:53:26+0000,-41.64,-45.43,-30.42,-44.66,-53.12,-54.92
2021/08/01 04:54:18+0000,-40.22,-44.22,-30.19,-49.62,-52.55,-55.27